• In Deutschland
  • Länderverzeichnis
  • Für 7 Tage
  • Wassertemperatur
  • Satellitenkarten
  • Wetterkarte
  • Widgets
  • user-avatar
    Anmelden

    Stündliche Wetter Bad Wünnenberg

    Heute, 19 Oktober, Donnerstag

    Zeit Temperatur Niederschläge Wind Luftdruck Luftfeuchtigkeit
    00:00 +11°C° 0 mm 1 m/S 727 mmHg 89%
    01:00 +11°C° 0 mm 1 m/S 727 mmHg 90%
    02:00 +11°C° 0 mm 1 m/S 727 mmHg 91%
    03:00 +11°C° 0 mm 1 m/S 727 mmHg 91%
    04:00 +11°C° 0 mm 1 m/S 727 mmHg 91%
    05:00 +11°C° 0 mm 1 m/S 727 mmHg 91%
    06:00 +10°C° 0 mm 1 m/S 727 mmHg 91%
    07:00 +10°C° 0 mm 1 m/S 727 mmHg 89%
    08:00 +12°C° 0 mm 1 m/S 727 mmHg 83%
    09:00 +14°C° 0 mm 2 m/S 727 mmHg 76%
    10:00 +15°C° 0 mm 2 m/S 727 mmHg 70%
    11:00 +16°C° 0 mm 2 m/S 727 mmHg 66%
    12:00 +18°C° 0 mm 3 m/S 727 mmHg 63%
    13:00 +18°C° 0 mm 2 m/S 727 mmHg 60%
    14:00 +18°C° 0 mm 2 m/S 727 mmHg 62%
    15:00 +18°C° 0 mm 2 m/S 726 mmHg 65%
    16:00 +18°C° 0 mm 2 m/S 726 mmHg 68%
    17:00 +16°C° 0 mm 2 m/S 726 mmHg 72%
    18:00 +15°C° 0 mm 2 m/S 726 mmHg 75%
    19:00 +12°C° 0 mm 3 m/S 726 mmHg 79%
    20:00 +12°C° 0 mm 3 m/S 726 mmHg 78%
    21:00 +13°C° 0 mm 2 m/S 726 mmHg 77%
    22:00 +13°C° 0 mm 2 m/S 726 mmHg 75%
    23:00 +13°C° 0 mm 2 m/S 726 mmHg 76%

    Morgen, 20 Oktober, Freitag

    Zeit Temperatur Niederschläge Wind Luftdruck Luftfeuchtigkeit
    00:00 +13°C° 0 mm 2 m/S 726 mmHg 76%
    01:00 +13°C° 0 mm 2 m/S 726 mmHg 77%
    02:00 +13°C° 0 mm 2 m/S 726 mmHg 74%
    03:00 +13°C° 0 mm 2 m/S 726 mmHg 72%
    04:00 +13°C° 0 mm 2 m/S 726 mmHg 70%
    05:00 +13°C° 0 mm 2 m/S 726 mmHg 70%
    06:00 +12°C° 0 mm 3 m/S 726 mmHg 70%
    07:00 +12°C° 0 mm 3 m/S 726 mmHg 70%
    08:00 +12°C° 0,6 mm 3 m/S 726 mmHg 74%
    09:00 +12°C° 0,6 mm 4 m/S 727 mmHg 79%
    10:00 +13°C° 0,6 mm 4 m/S 727 mmHg 83%
    11:00 +13°C° 0,6 mm 5 m/S 727 mmHg 84%
    12:00 +13°C° 0,6 mm 5 m/S 727 mmHg 85%
    13:00 +13°C° 0,6 mm 5 m/S 727 mmHg 86%
    14:00 +13°C° 0,2 mm 5 m/S 727 mmHg 84%
    15:00 +13°C° 0,2 mm 4 m/S 727 mmHg 81%
    16:00 +13°C° 0,2 mm 4 m/S 727 mmHg 79%
    17:00 +12°C° 0,1 mm 4 m/S 727 mmHg 81%
    18:00 +11°C° 0,1 mm 3 m/S 728 mmHg 83%
    19:00 +10°C° 0,1 mm 3 m/S 728 mmHg 85%
    20:00 +9°C° 0 mm 3 m/S 728 mmHg 86%
    21:00 +8°C° 0 mm 3 m/S 728 mmHg 88%
    22:00 +8°C° 0 mm 2 m/S 729 mmHg 89%
    23:00 +7°C° 0 mm 2 m/S 729 mmHg 90%

    übermorgen, 21 Oktober, Samstag

    Zeit Temperatur Niederschläge Wind Luftdruck Luftfeuchtigkeit
    00:00 +7°C° 0 mm 2 m/S 728 mmHg 91%
    01:00 +7°C° 0 mm 2 m/S 728 mmHg 91%
    02:00 +7°C° 0 mm 2 m/S 728 mmHg 90%
    03:00 +8°C° 0 mm 2 m/S 728 mmHg 88%
    04:00 +8°C° 0 mm 2 m/S 728 mmHg 86%
    05:00 +8°C° 0 mm 3 m/S 728 mmHg 87%
    06:00 +8°C° 0 mm 3 m/S 727 mmHg 88%
    07:00 +9°C° 0 mm 3 m/S 727 mmHg 89%
    08:00 +10°C° 0 mm 3 m/S 727 mmHg 87%
    09:00 +12°C° 0 mm 4 m/S 727 mmHg 85%
    10:00 +13°C° 0 mm 5 m/S 727 mmHg 83%
    11:00 +13°C° 0,5 mm 4 m/S 727 mmHg 85%
    12:00 +13°C° 0,5 mm 4 m/S 726 mmHg 87%
    13:00 +13°C° 0,5 mm 4 m/S 726 mmHg 89%
    14:00 +13°C° 0,2 mm 4 m/S 726 mmHg 89%
    15:00 +13°C° 0,2 mm 4 m/S 726 mmHg 89%
    16:00 +13°C° 0,2 mm 3 m/S 726 mmHg 89%
    17:00 +12°C° 0 mm 3 m/S 726 mmHg 89%
    18:00 +12°C° 0 mm 3 m/S 727 mmHg 90%
    19:00 +11°C° 0 mm 4 m/S 727 mmHg 90%
    20:00 +10°C° 0 mm 4 m/S 727 mmHg 90%
    21:00 +10°C° 0 mm 4 m/S 727 mmHg 89%
    22:00 +8°C° 0 mm 4 m/S 727 mmHg 89%
    23:00 +8°C° 0 mm 4 m/S 727 mmHg 88%

    22 Oktober, Sonntag

    Zeit Temperatur Niederschläge Wind Luftdruck Luftfeuchtigkeit
    00:00 +7°C° 0 mm 4 m/S 727 mmHg 88%
    01:00 +7°C° 0 mm 4 m/S 727 mmHg 88%
    02:00 +7°C° 0 mm 4 m/S 727 mmHg 88%
    03:00 +6°C° 0 mm 4 m/S 727 mmHg 88%
    04:00 +6°C° 0 mm 4 m/S 727 mmHg 88%
    05:00 +6°C° 0 mm 4 m/S 727 mmHg 87%
    06:00 +6°C° 0 mm 5 m/S 726 mmHg 86%
    07:00 +6°C° 0 mm 5 m/S 726 mmHg 86%
    08:00 +6°C° 0 mm 5 m/S 727 mmHg 83%
    09:00 +7°C° 0 mm 5 m/S 727 mmHg 80%
    10:00 +8°C° 0 mm 6 m/S 727 mmHg 76%
    11:00 +8°C° 0 mm 6 m/S 727 mmHg 74%
    12:00 +8°C° 0 mm 6 m/S 727 mmHg 72%
    13:00 +9°C° 0 mm 6 m/S 727 mmHg 70%
    14:00 +8°C° 0,1 mm 5 m/S 727 mmHg 72%
    15:00 +8°C° 0,1 mm 5 m/S 727 mmHg 73%
    16:00 +8°C° 0,1 mm 5 m/S 727 mmHg 75%
    17:00 +7°C° 0,1 mm 4 m/S 727 mmHg 78%
    18:00 +7°C° 0,1 mm 4 m/S 727 mmHg 81%
    19:00 +6°C° 0,1 mm 4 m/S 727 mmHg 84%
    20:00 +7°C° 0 mm 3 m/S 727 mmHg 85%
    21:00 +5°C° 0 mm 3 m/S 727 mmHg 86%
    22:00 +5°C° 0 mm 3 m/S 727 mmHg 88%
    23:00 +5°C° 0 mm 3 m/S 727 mmHg 89%

    23 Oktober, Montag

    Zeit Temperatur Niederschläge Wind Luftdruck Luftfeuchtigkeit
    00:00 +4°C° 0 mm 3 m/S 727 mmHg 91%
    01:00 +4°C° 0 mm 3 m/S 727 mmHg 92%
    02:00 +4°C° 0 mm 3 m/S 727 mmHg 92%
    03:00 +5°C° 0 mm 3 m/S 728 mmHg 92%
    04:00 +5°C° 0 mm 3 m/S 728 mmHg 92%
    05:00 +5°C° 0 mm 3 m/S 728 mmHg 92%
    06:00 +5°C° 0 mm 3 m/S 728 mmHg 93%
    07:00 +6°C° 0 mm 2 m/S 728 mmHg 94%
    08:00 +7°C° 0,2 mm 3 m/S 729 mmHg 93%
    09:00 +8°C° 0,2 mm 3 m/S 729 mmHg 92%
    10:00 +8°C° 0,2 mm 3 m/S 730 mmHg 91%
    11:00 +9°C° 0,1 mm 3 m/S 730 mmHg 89%
    12:00 +10°C° 0,1 mm 4 m/S 730 mmHg 87%
    13:00 +10°C° 0,1 mm 4 m/S 730 mmHg 85%
    14:00 +10°C° 0,1 mm 3 m/S 731 mmHg 84%
    15:00 +10°C° 0,1 mm 3 m/S 731 mmHg 83%
    16:00 +10°C° 0,1 mm 3 m/S 731 mmHg 82%
    17:00 +9°C° 0 mm 2 m/S 731 mmHg 85%
    18:00 +8°C° 0 mm 2 m/S 732 mmHg 89%
    19:00 +7°C° 0 mm 2 m/S 732 mmHg 92%
    20:00 +6°C° 0 mm 2 m/S 732 mmHg 93%
    21:00 +6°C° 0 mm 2 m/S 732 mmHg 94%
    22:00 +6°C° 0 mm 2 m/S 732 mmHg 94%
    23:00 +6°C° 0 mm 2 m/S 732 mmHg 95%

    24 Oktober, Dienstag

    Zeit Temperatur Niederschläge Wind Luftdruck Luftfeuchtigkeit
    00:00 +6°C° 0 mm 2 m/S 732 mmHg 95%
    01:00 +6°C° 0 mm 2 m/S 732 mmHg 96%
    02:00 +6°C° 0 mm 2 m/S 732 mmHg 96%
    03:00 +7°C° 0 mm 2 m/S 732 mmHg 96%
    04:00 +7°C° 0 mm 2 m/S 732 mmHg 96%
    05:00 +7°C° 0,2 mm 2 m/S 732 mmHg 96%
    06:00 +8°C° 0,2 mm 2 m/S 732 mmHg 96%
    07:00 +8°C° 0,2 mm 2 m/S 732 mmHg 96%
    08:00 +9°C° 0,5 mm 2 m/S 733 mmHg 96%
    09:00 +9°C° 0,5 mm 2 m/S 733 mmHg 96%
    10:00 +10°C° 0,5 mm 2 m/S 733 mmHg 96%
    11:00 +10°C° 0,1 mm 2 m/S 734 mmHg 95%
    12:00 +12°C° 0,1 mm 2 m/S 734 mmHg 94%
    13:00 +13°C° 0,1 mm 1 m/S 734 mmHg 92%
    14:00 +13°C° 0 mm 1 m/S 734 mmHg 92%
    15:00 +14°C° 0 mm 1 m/S 734 mmHg 92%
    16:00 +14°C° 0 mm 1 m/S 734 mmHg 91%
    17:00 +13°C° 0 mm 1 m/S 735 mmHg 93%
    18:00 +12°C° 0 mm 1 m/S 735 mmHg 94%
    19:00 +12°C° 0 mm 1 m/S 735 mmHg 95%
    20:00 +12°C° 0 mm 1 m/S 735 mmHg 96%
    21:00 +12°C° 0 mm 1 m/S 736 mmHg 96%
    22:00 +11°C° 0 mm 1 m/S 736 mmHg 96%
    23:00 +12°C° 0,1 mm 1 m/S 736 mmHg 96%
    Mehr zeigen